Year,Month,Day,Hour,Minute,Value (Times are PST for temperature in C)
2014,11,15,00,00,3.50
2014,11,15,00,01,3.40
2014,11,15,00,02,3.40
2014,11,15,00,03,3.40
2014,11,15,00,04,3.30
2014,11,15,00,05,3.30
2014,11,15,00,06,3.30
2014,11,15,00,07,3.20
2014,11,15,00,08,3.20
2014,11,15,00,09,3.20
2014,11,15,00,10,3.20
2014,11,15,00,11,3.20
2014,11,15,00,12,3.20
2014,11,15,00,13,3.20
2014,11,15,00,14,3.10
2014,11,15,00,15,3.10
2014,11,15,00,16,3.10
2014,11,15,00,17,3.10
2014,11,15,00,18,3.00
2014,11,15,00,19,3.00
2014,11,15,00,20,2.90
2014,11,15,00,21,2.90
2014,11,15,00,22,2.90
2014,11,15,00,23,2.80
2014,11,15,00,24,2.80
2014,11,15,00,25,2.80
2014,11,15,00,26,2.80
2014,11,15,00,27,2.80
2014,11,15,00,28,2.70
2014,11,15,00,29,2.70
2014,11,15,00,30,2.70
2014,11,15,00,31,2.70
2014,11,15,00,32,2.70
2014,11,15,00,33,2.70
2014,11,15,00,34,2.70
2014,11,15,00,35,2.70
2014,11,15,00,36,2.70
2014,11,15,00,37,2.70
2014,11,15,00,38,2.70
2014,11,15,00,39,2.70
2014,11,15,00,40,2.70
2014,11,15,00,41,2.70
2014,11,15,00,42,2.70
2014,11,15,00,43,2.70
2014,11,15,00,44,2.70
2014,11,15,00,45,2.60
2014,11,15,00,46,2.60
2014,11,15,00,47,2.60
2014,11,15,00,48,2.60
2014,11,15,00,49,2.60
2014,11,15,00,50,2.60
2014,11,15,00,51,2.60
2014,11,15,00,52,2.60
2014,11,15,00,53,2.60
2014,11,15,00,54,2.60
2014,11,15,00,55,2.60
2014,11,15,00,56,2.60
2014,11,15,00,57,2.60
2014,11,15,00,58,2.60
2014,11,15,00,59,2.60
2014,11,15,01,00,2.70
2014,11,15,01,01,2.70
2014,11,15,01,02,2.70
2014,11,15,01,03,2.70
2014,11,15,01,04,2.70
2014,11,15,01,05,2.70
2014,11,15,01,06,2.70
2014,11,15,01,07,2.70
2014,11,15,01,08,2.70
2014,11,15,01,09,2.70
2014,11,15,01,10,2.70
2014,11,15,01,11,2.70
2014,11,15,01,12,2.70
2014,11,15,01,13,2.80
2014,11,15,01,14,2.80
2014,11,15,01,15,2.80
2014,11,15,01,16,2.80
2014,11,15,01,17,2.80
2014,11,15,01,18,2.80
2014,11,15,01,19,2.80
2014,11,15,01,20,2.80
2014,11,15,01,21,2.80
2014,11,15,01,22,2.80
2014,11,15,01,23,2.80
2014,11,15,01,24,2.70
2014,11,15,01,25,2.70
2014,11,15,01,26,2.70
2014,11,15,01,27,2.60
2014,11,15,01,28,2.60
2014,11,15,01,29,2.50
2014,11,15,01,30,2.40
2014,11,15,01,31,2.30
2014,11,15,01,32,2.30
2014,11,15,01,33,2.30
2014,11,15,01,34,2.20
2014,11,15,01,35,2.20
2014,11,15,01,36,2.10
2014,11,15,01,37,2.10
2014,11,15,01,38,2.10
2014,11,15,01,39,2.10
2014,11,15,01,40,2.00
2014,11,15,01,41,2.00
2014,11,15,01,42,1.90
2014,11,15,01,43,1.90
2014,11,15,01,44,1.80
2014,11,15,01,45,1.80
2014,11,15,01,46,1.70
2014,11,15,01,47,1.70
2014,11,15,01,48,1.60
2014,11,15,01,49,1.50
2014,11,15,01,50,1.50
2014,11,15,01,51,1.40
2014,11,15,01,52,1.40
2014,11,15,01,53,1.40
2014,11,15,01,54,1.30
2014,11,15,01,55,1.30
2014,11,15,01,56,1.20
2014,11,15,01,57,1.20
2014,11,15,01,58,1.20
2014,11,15,01,59,1.20
2014,11,15,02,00,1.10
2014,11,15,02,01,1.10
2014,11,15,02,02,1.10
2014,11,15,02,03,1.10
2014,11,15,02,04,1.20
2014,11,15,02,05,1.20
2014,11,15,02,06,1.20
2014,11,15,02,07,1.20
2014,11,15,02,08,1.20
2014,11,15,02,09,1.20
2014,11,15,02,10,1.20
2014,11,15,02,11,1.20
2014,11,15,02,12,1.10
2014,11,15,02,13,1.10
2014,11,15,02,14,1.10
2014,11,15,02,15,1.10
2014,11,15,02,16,1.00
2014,11,15,02,17,1.00
2014,11,15,02,18,1.00
2014,11,15,02,19,1.00
2014,11,15,02,20,1.00
2014,11,15,02,21,1.00
2014,11,15,02,22,1.00
2014,11,15,02,23,0.90
2014,11,15,02,24,0.90
2014,11,15,02,25,0.80
2014,11,15,02,26,0.80
2014,11,15,02,27,0.70
2014,11,15,02,28,0.70
2014,11,15,02,29,0.60
2014,11,15,02,30,0.60
2014,11,15,02,31,0.60
2014,11,15,02,32,0.50
2014,11,15,02,33,0.50
2014,11,15,02,34,0.40
2014,11,15,02,35,0.40
2014,11,15,02,36,0.50
2014,11,15,02,37,0.50
2014,11,15,02,38,0.50
2014,11,15,02,39,0.60
2014,11,15,02,40,0.60
2014,11,15,02,41,0.70
2014,11,15,02,42,0.80
2014,11,15,02,43,0.80
2014,11,15,02,44,0.90
2014,11,15,02,45,0.90
2014,11,15,02,46,0.90
2014,11,15,02,47,1.00
2014,11,15,02,48,1.00
2014,11,15,02,49,1.00
2014,11,15,02,50,1.00
2014,11,15,02,51,1.00
2014,11,15,02,52,1.00
2014,11,15,02,53,0.90
2014,11,15,02,54,0.90
2014,11,15,02,55,0.90
2014,11,15,02,56,0.80
2014,11,15,02,57,0.80
2014,11,15,02,58,0.70
2014,11,15,02,59,0.60
2014,11,15,03,00,0.60
2014,11,15,03,01,0.60
2014,11,15,03,02,0.60
2014,11,15,03,03,0.60
2014,11,15,03,04,0.60
2014,11,15,03,05,0.60
2014,11,15,03,06,0.50
2014,11,15,03,07,0.50
2014,11,15,03,08,0.50
2014,11,15,03,09,0.50
2014,11,15,03,10,0.50
2014,11,15,03,11,0.60
2014,11,15,03,12,0.60
2014,11,15,03,13,0.70
2014,11,15,03,14,0.70
2014,11,15,03,15,0.80
2014,11,15,03,16,0.80
2014,11,15,03,17,0.90
2014,11,15,03,18,0.90
2014,11,15,03,19,0.90
2014,11,15,03,20,0.90
2014,11,15,03,21,0.90
2014,11,15,03,22,0.90
2014,11,15,03,23,0.90
2014,11,15,03,24,0.80
2014,11,15,03,25,0.80
2014,11,15,03,26,0.80
2014,11,15,03,27,0.80
2014,11,15,03,28,0.80
2014,11,15,03,29,0.80
2014,11,15,03,30,0.80
2014,11,15,03,31,0.80
2014,11,15,03,32,0.80
2014,11,15,03,33,0.90
2014,11,15,03,34,1.00
2014,11,15,03,35,1.10
2014,11,15,03,36,1.10
2014,11,15,03,37,1.20
2014,11,15,03,38,1.30
2014,11,15,03,39,1.40
2014,11,15,03,40,1.40
2014,11,15,03,41,1.50
2014,11,15,03,42,1.50
2014,11,15,03,43,1.50
2014,11,15,03,44,1.50
2014,11,15,03,45,1.50
2014,11,15,03,46,1.50
2014,11,15,03,47,1.50
2014,11,15,03,48,1.50
2014,11,15,03,49,1.50
2014,11,15,03,50,1.60
2014,11,15,03,51,1.60
2014,11,15,03,52,1.60
2014,11,15,03,53,1.60
2014,11,15,03,54,1.60
2014,11,15,03,55,1.70
2014,11,15,03,56,1.70
2014,11,15,03,57,1.80
2014,11,15,03,58,1.80
2014,11,15,03,59,1.90
2014,11,15,04,00,2.00
2014,11,15,04,01,2.00
2014,11,15,04,02,2.10
2014,11,15,04,03,2.10
2014,11,15,04,04,2.20
2014,11,15,04,05,2.20
2014,11,15,04,06,2.20
2014,11,15,04,07,2.00
2014,11,15,04,08,1.90
2014,11,15,04,09,1.70
2014,11,15,04,10,1.50
2014,11,15,04,11,1.30
2014,11,15,04,12,1.10
2014,11,15,04,13,1.00
2014,11,15,04,14,0.90
2014,11,15,04,15,0.80
2014,11,15,04,16,0.70
2014,11,15,04,17,0.70
2014,11,15,04,18,0.70
2014,11,15,04,19,0.60
2014,11,15,04,20,0.60
2014,11,15,04,21,0.60
2014,11,15,04,22,0.50
2014,11,15,04,23,0.50
2014,11,15,04,24,0.40
2014,11,15,04,25,0.40
2014,11,15,04,26,0.40
2014,11,15,04,27,0.30
2014,11,15,04,28,0.30
2014,11,15,04,29,0.30
2014,11,15,04,30,0.30
2014,11,15,04,31,0.30
2014,11,15,04,32,0.20
2014,11,15,04,33,0.20
2014,11,15,04,34,0.20
2014,11,15,04,35,0.10
2014,11,15,04,36,0.10
2014,11,15,04,37,0.10
2014,11,15,04,38,0.10
2014,11,15,04,39,0.00
2014,11,15,04,40,0.00
2014,11,15,04,41,0.00
2014,11,15,04,42,0.00
2014,11,15,04,43,0.00
2014,11,15,04,44,-0.10
2014,11,15,04,45,-0.10
2014,11,15,04,46,-0.10
2014,11,15,04,47,-0.10
2014,11,15,04,48,-0.10
2014,11,15,04,49,-0.10
2014,11,15,04,50,-0.10
2014,11,15,04,51,-0.10
2014,11,15,04,52,-0.10
2014,11,15,04,53,-0.10
2014,11,15,04,54,-0.10
2014,11,15,04,55,-0.10
2014,11,15,04,56,-0.10
2014,11,15,04,57,-0.10
2014,11,15,04,58,-0.10
2014,11,15,04,59,-0.10
2014,11,15,05,00,-0.10
2014,11,15,05,01,0.00
2014,11,15,05,02,0.00
2014,11,15,05,03,0.00
2014,11,15,05,04,0.10
2014,11,15,05,05,0.10
2014,11,15,05,06,0.20
2014,11,15,05,07,0.20
2014,11,15,05,08,0.30
2014,11,15,05,09,0.30
2014,11,15,05,10,0.30
2014,11,15,05,11,0.30
2014,11,15,05,12,0.40
2014,11,15,05,13,0.40
2014,11,15,05,14,0.40
2014,11,15,05,15,0.40
2014,11,15,05,16,0.40
2014,11,15,05,17,0.30
2014,11,15,05,18,0.30
2014,11,15,05,19,0.20
2014,11,15,05,20,0.10
2014,11,15,05,21,0.00
2014,11,15,05,22,0.00
2014,11,15,05,23,-0.10
2014,11,15,05,24,-0.10
2014,11,15,05,25,-0.10
2014,11,15,05,26,-0.10
2014,11,15,05,27,-0.20
2014,11,15,05,28,-0.20
2014,11,15,05,29,-0.20
2014,11,15,05,30,-0.20
2014,11,15,05,31,-0.20
2014,11,15,05,32,-0.20
2014,11,15,05,33,-0.20
2014,11,15,05,34,-0.20
2014,11,15,05,35,-0.30
2014,11,15,05,36,-0.30
2014,11,15,05,37,-0.30
2014,11,15,05,38,-0.30
2014,11,15,05,39,-0.30
2014,11,15,05,40,-0.30
2014,11,15,05,41,-0.40
2014,11,15,05,42,-0.40
2014,11,15,05,43,-0.40
2014,11,15,05,44,-0.40
2014,11,15,05,45,-0.40
2014,11,15,05,46,-0.40
2014,11,15,05,47,-0.40
2014,11,15,05,48,-0.30
2014,11,15,05,49,-0.30
2014,11,15,05,50,-0.30
2014,11,15,05,51,-0.30
2014,11,15,05,52,-0.30
2014,11,15,05,53,-0.40
2014,11,15,05,54,-0.40
2014,11,15,05,55,-0.40
2014,11,15,05,56,-0.40
2014,11,15,05,57,-0.40
2014,11,15,05,58,-0.40
2014,11,15,05,59,-0.40
2014,11,15,06,00,-0.40
2014,11,15,06,01,-0.40
2014,11,15,06,02,-0.40
2014,11,15,06,03,-0.40
2014,11,15,06,04,-0.40
2014,11,15,06,05,-0.40
2014,11,15,06,06,-0.40
2014,11,15,06,07,-0.40
2014,11,15,06,08,-0.40
2014,11,15,06,09,-0.40
2014,11,15,06,10,-0.40
2014,11,15,06,11,-0.30
2014,11,15,06,12,-0.30
2014,11,15,06,13,-0.30
2014,11,15,06,14,-0.30
2014,11,15,06,15,-0.30
2014,11,15,06,16,-0.30
2014,11,15,06,17,-0.30
2014,11,15,06,18,-0.30
2014,11,15,06,19,-0.30
2014,11,15,06,20,-0.30
2014,11,15,06,21,-0.30
2014,11,15,06,22,-0.20
2014,11,15,06,23,-0.20
2014,11,15,06,24,-0.20
2014,11,15,06,25,-0.20
2014,11,15,06,26,-0.20
2014,11,15,06,27,-0.10
2014,11,15,06,28,-0.10
2014,11,15,06,29,0.00
2014,11,15,06,30,0.10
2014,11,15,06,31,0.30
2014,11,15,06,32,0.50
2014,11,15,06,33,0.70
2014,11,15,06,34,0.90
2014,11,15,06,35,1.10
2014,11,15,06,36,1.30
2014,11,15,06,37,1.40
2014,11,15,06,38,1.50
2014,11,15,06,39,1.60
2014,11,15,06,40,1.60
2014,11,15,06,41,1.60
2014,11,15,06,42,1.50
2014,11,15,06,43,1.50
2014,11,15,06,44,1.40
2014,11,15,06,45,1.40
2014,11,15,06,46,1.40
2014,11,15,06,47,1.40
2014,11,15,06,48,1.40
2014,11,15,06,49,1.40
2014,11,15,06,50,1.40
2014,11,15,06,51,1.50
2014,11,15,06,52,1.50
2014,11,15,06,53,1.50
2014,11,15,06,54,1.60
2014,11,15,06,55,1.60
2014,11,15,06,56,1.60
2014,11,15,06,57,1.70
2014,11,15,06,58,1.70
2014,11,15,06,59,1.70
2014,11,15,07,00,1.70
2014,11,15,07,01,1.70
2014,11,15,07,02,1.60
2014,11,15,07,03,1.60
2014,11,15,07,04,1.60
2014,11,15,07,05,1.60
2014,11,15,07,06,1.50
2014,11,15,07,07,1.40
2014,11,15,07,08,1.40
2014,11,15,07,09,1.40
2014,11,15,07,10,1.30
2014,11,15,07,11,1.30
2014,11,15,07,12,1.30
2014,11,15,07,13,1.30
2014,11,15,07,14,1.20
2014,11,15,07,15,1.20
2014,11,15,07,16,1.20
2014,11,15,07,17,1.20
2014,11,15,07,18,1.10
2014,11,15,07,19,1.10
2014,11,15,07,20,1.10
2014,11,15,07,21,1.10
2014,11,15,07,22,1.00
2014,11,15,07,23,1.00
2014,11,15,07,24,0.90
2014,11,15,07,25,0.90
2014,11,15,07,26,0.90
2014,11,15,07,27,0.90
2014,11,15,07,28,1.00
2014,11,15,07,29,1.00
2014,11,15,07,30,1.00
2014,11,15,07,31,1.00
2014,11,15,07,32,1.00
2014,11,15,07,33,1.00
2014,11,15,07,34,1.00
2014,11,15,07,35,1.10
2014,11,15,07,36,1.20
2014,11,15,07,37,1.20
2014,11,15,07,38,1.30
2014,11,15,07,39,1.30
2014,11,15,07,40,1.30
2014,11,15,07,41,1.30
2014,11,15,07,42,1.30
2014,11,15,07,43,1.20
2014,11,15,07,44,1.20
2014,11,15,07,45,1.20
2014,11,15,07,46,1.20
2014,11,15,07,47,1.20
2014,11,15,07,48,1.10
2014,11,15,07,49,1.10
2014,11,15,07,50,1.00
2014,11,15,07,51,0.90
2014,11,15,07,52,0.80
2014,11,15,07,53,0.60
2014,11,15,07,54,0.50
2014,11,15,07,55,0.30
2014,11,15,07,56,0.20
2014,11,15,07,57,0.10
2014,11,15,07,58,0.00
2014,11,15,07,59,-0.10
2014,11,15,08,00,-0.10
2014,11,15,08,01,-0.20
2014,11,15,08,02,-0.20
2014,11,15,08,03,-0.20
2014,11,15,08,04,-0.20
2014,11,15,08,05,-0.20
2014,11,15,08,06,-0.20
2014,11,15,08,07,-0.20
2014,11,15,08,08,-0.20
2014,11,15,08,09,-0.10
2014,11,15,08,10,0.00
2014,11,15,08,11,0.10
2014,11,15,08,12,0.20
2014,11,15,08,13,0.30
2014,11,15,08,14,0.50
2014,11,15,08,15,0.60
2014,11,15,08,16,0.70
2014,11,15,08,17,0.80
2014,11,15,08,18,0.80
2014,11,15,08,19,0.90
2014,11,15,08,20,1.00
2014,11,15,08,21,1.20
2014,11,15,08,22,1.30
2014,11,15,08,23,1.40
2014,11,15,08,24,1.50
2014,11,15,08,25,1.60
2014,11,15,08,26,1.70
2014,11,15,08,27,1.80
2014,11,15,08,28,1.90
2014,11,15,08,29,2.00
2014,11,15,08,30,2.10
2014,11,15,08,31,2.10
2014,11,15,08,32,2.20
2014,11,15,08,33,2.30
2014,11,15,08,34,2.40
2014,11,15,08,35,2.50
2014,11,15,08,36,2.60
2014,11,15,08,37,2.70
2014,11,15,08,38,2.70
2014,11,15,08,39,2.80
2014,11,15,08,40,2.80
2014,11,15,08,41,2.90
2014,11,15,08,42,3.00
2014,11,15,08,43,3.00
2014,11,15,08,44,3.10
2014,11,15,08,45,3.10
2014,11,15,08,46,3.20
2014,11,15,08,47,3.30
2014,11,15,08,48,3.30
2014,11,15,08,49,3.30
2014,11,15,08,50,3.40
2014,11,15,08,51,3.40
2014,11,15,08,52,3.50
2014,11,15,08,53,3.50
2014,11,15,08,54,3.50
2014,11,15,08,55,3.60
2014,11,15,08,56,3.60
2014,11,15,08,57,3.60
2014,11,15,08,58,3.70
2014,11,15,08,59,3.70
2014,11,15,09,00,3.70
2014,11,15,09,01,3.80
2014,11,15,09,02,3.80
2014,11,15,09,03,3.80
2014,11,15,09,04,3.80
2014,11,15,09,05,3.80
2014,11,15,09,06,3.90
2014,11,15,09,07,3.90
2014,11,15,09,08,3.90
2014,11,15,09,09,3.90
2014,11,15,09,10,4.00
2014,11,15,09,11,4.00
2014,11,15,09,12,4.10
2014,11,15,09,13,4.10
2014,11,15,09,14,4.10
2014,11,15,09,15,4.10
2014,11,15,09,16,4.10
2014,11,15,09,17,4.10
2014,11,15,09,18,4.10
2014,11,15,09,19,4.20
2014,11,15,09,20,4.20
2014,11,15,09,21,4.20
2014,11,15,09,22,4.20
2014,11,15,09,23,4.20
2014,11,15,09,24,4.20
2014,11,15,09,25,4.30
2014,11,15,09,26,4.30
2014,11,15,09,27,4.30
2014,11,15,09,28,4.30
2014,11,15,09,29,4.30
2014,11,15,09,30,4.30
2014,11,15,09,31,4.30
2014,11,15,09,32,4.30
2014,11,15,09,33,4.40
2014,11,15,09,34,4.40
2014,11,15,09,35,4.40
2014,11,15,09,36,4.40
2014,11,15,09,37,4.40
2014,11,15,09,38,4.40
2014,11,15,09,39,4.40
2014,11,15,09,40,4.40
2014,11,15,09,41,4.40
2014,11,15,09,42,4.40
2014,11,15,09,43,4.40
2014,11,15,09,44,4.40
2014,11,15,09,45,4.40
2014,11,15,09,46,4.50
2014,11,15,09,47,4.50
2014,11,15,09,48,4.50
2014,11,15,09,49,4.60
2014,11,15,09,50,4.60
2014,11,15,09,51,4.60
2014,11,15,09,52,4.60
2014,11,15,09,53,4.60
2014,11,15,09,54,4.70
2014,11,15,09,55,4.70
2014,11,15,09,56,4.70
2014,11,15,09,57,4.70
2014,11,15,09,58,4.70
2014,11,15,09,59,4.70
2014,11,15,10,00,4.80
2014,11,15,10,01,4.80
2014,11,15,10,02,4.80
2014,11,15,10,03,4.80
2014,11,15,10,04,4.80
2014,11,15,10,05,4.80
2014,11,15,10,06,4.90
2014,11,15,10,07,4.90
2014,11,15,10,08,4.90
2014,11,15,10,09,4.90
2014,11,15,10,10,4.90
2014,11,15,10,11,4.90
2014,11,15,10,12,4.90
2014,11,15,10,13,4.80
2014,11,15,10,14,4.80
2014,11,15,10,15,4.90
2014,11,15,10,16,4.90
2014,11,15,10,17,4.90
2014,11,15,10,18,4.90
2014,11,15,10,19,4.90
2014,11,15,10,20,5.00
2014,11,15,10,21,5.10
2014,11,15,10,22,5.10
2014,11,15,10,23,5.10
2014,11,15,10,24,5.20
2014,11,15,10,25,5.20
2014,11,15,10,26,5.20
2014,11,15,10,27,5.20
2014,11,15,10,28,5.20
2014,11,15,10,29,5.20
2014,11,15,10,30,5.20
2014,11,15,10,31,5.20
2014,11,15,10,32,5.20
2014,11,15,10,33,5.20
2014,11,15,10,34,5.20
2014,11,15,10,35,5.20
2014,11,15,10,36,5.30
2014,11,15,10,37,5.30
2014,11,15,10,38,5.30
2014,11,15,10,39,5.30
2014,11,15,10,40,5.30
2014,11,15,10,41,5.30
2014,11,15,10,42,5.30
2014,11,15,10,43,5.40
2014,11,15,10,44,5.40
2014,11,15,10,45,5.40
2014,11,15,10,46,5.40
2014,11,15,10,47,5.50
2014,11,15,10,48,5.50
2014,11,15,10,49,5.50
2014,11,15,10,50,5.50
2014,11,15,10,51,5.40
2014,11,15,10,52,5.40
2014,11,15,10,53,5.40
2014,11,15,10,54,5.40
2014,11,15,10,55,5.40
2014,11,15,10,56,5.40
2014,11,15,10,57,5.40
2014,11,15,10,58,5.40
2014,11,15,10,59,5.40
2014,11,15,11,00,5.40
2014,11,15,11,01,5.40
2014,11,15,11,02,5.40
2014,11,15,11,03,5.40
2014,11,15,11,04,5.50
2014,11,15,11,05,5.40
2014,11,15,11,06,5.40
2014,11,15,11,07,5.50
2014,11,15,11,08,5.40
2014,11,15,11,09,5.50
2014,11,15,11,10,5.50
2014,11,15,11,11,5.60
2014,11,15,11,12,5.60
2014,11,15,11,13,5.60
2014,11,15,11,14,5.60
2014,11,15,11,15,5.60
2014,11,15,11,16,5.70
2014,11,15,11,17,5.70
2014,11,15,11,18,5.70
2014,11,15,11,19,5.80
2014,11,15,11,20,5.80
2014,11,15,11,21,5.80
2014,11,15,11,22,5.90
2014,11,15,11,23,5.90
2014,11,15,11,24,6.00
2014,11,15,11,25,6.00
2014,11,15,11,26,6.10
2014,11,15,11,27,6.10
2014,11,15,11,28,6.10
2014,11,15,11,29,6.10
2014,11,15,11,30,6.10
2014,11,15,11,31,6.10
2014,11,15,11,32,6.10
2014,11,15,11,33,6.10
2014,11,15,11,34,6.00
2014,11,15,11,35,6.00
2014,11,15,11,36,6.00
2014,11,15,11,37,6.00
2014,11,15,11,38,6.00
2014,11,15,11,39,6.10
2014,11,15,11,40,6.10
2014,11,15,11,41,6.10
2014,11,15,11,42,6.20
2014,11,15,11,43,6.20
2014,11,15,11,44,6.20
2014,11,15,11,45,6.20
2014,11,15,11,46,6.20
2014,11,15,11,47,6.20
2014,11,15,11,48,6.30
2014,11,15,11,49,6.30
2014,11,15,11,50,6.30
2014,11,15,11,51,6.30
2014,11,15,11,52,6.40
2014,11,15,11,53,6.40
2014,11,15,11,54,6.40
2014,11,15,11,55,6.40
2014,11,15,11,56,6.40
2014,11,15,11,57,6.30
2014,11,15,11,58,6.30
2014,11,15,11,59,6.30
2014,11,15,12,00,6.30
2014,11,15,12,01,6.40
2014,11,15,12,02,6.40
2014,11,15,12,03,6.40
2014,11,15,12,04,6.40
2014,11,15,12,05,6.50
2014,11,15,12,06,6.50
2014,11,15,12,07,6.50
2014,11,15,12,08,6.50
2014,11,15,12,09,6.50
2014,11,15,12,10,6.50
2014,11,15,12,11,6.50
2014,11,15,12,12,6.50
2014,11,15,12,13,6.50
2014,11,15,12,14,6.50
2014,11,15,12,15,6.50
2014,11,15,12,16,6.50
2014,11,15,12,17,6.50
2014,11,15,12,18,6.50
2014,11,15,12,19,6.50
2014,11,15,12,20,6.50
2014,11,15,12,21,6.50
2014,11,15,12,22,6.50
2014,11,15,12,23,6.50
2014,11,15,12,24,6.50
2014,11,15,12,25,6.50
2014,11,15,12,26,6.50
2014,11,15,12,27,6.50
2014,11,15,12,28,6.50
2014,11,15,12,29,6.50
2014,11,15,12,30,6.60
2014,11,15,12,31,6.60
2014,11,15,12,32,6.60
2014,11,15,12,33,6.60
2014,11,15,12,34,6.60
2014,11,15,12,35,6.70
2014,11,15,12,36,6.70
2014,11,15,12,37,6.70
2014,11,15,12,38,6.60
2014,11,15,12,39,6.70
2014,11,15,12,40,6.70
2014,11,15,12,41,6.70
2014,11,15,12,42,6.70
2014,11,15,12,43,6.80
2014,11,15,12,44,6.80
2014,11,15,12,45,6.80
2014,11,15,12,46,6.80
2014,11,15,12,47,6.90
2014,11,15,12,48,6.90
2014,11,15,12,49,6.90
2014,11,15,12,50,6.80
2014,11,15,12,51,6.90
2014,11,15,12,52,6.80
2014,11,15,12,53,6.80
2014,11,15,12,54,6.80
2014,11,15,12,55,6.80
2014,11,15,12,56,6.90
2014,11,15,12,57,6.90
2014,11,15,12,58,6.90
2014,11,15,12,59,6.90
2014,11,15,13,00,6.90
2014,11,15,13,01,6.90
2014,11,15,13,02,6.90
2014,11,15,13,03,6.90
2014,11,15,13,04,6.90
2014,11,15,13,05,6.80
2014,11,15,13,06,6.80
2014,11,15,13,07,6.80
2014,11,15,13,08,6.80
2014,11,15,13,09,6.80
2014,11,15,13,10,6.80
2014,11,15,13,11,6.80
2014,11,15,13,12,6.80
2014,11,15,13,13,6.80
2014,11,15,13,14,6.90
2014,11,15,13,15,6.90
2014,11,15,13,16,6.90
2014,11,15,13,17,7.00
2014,11,15,13,18,7.00
2014,11,15,13,19,6.90
2014,11,15,13,20,6.90
2014,11,15,13,21,6.90
2014,11,15,13,22,6.90
2014,11,15,13,23,6.90
2014,11,15,13,24,6.90
2014,11,15,13,25,6.90
2014,11,15,13,26,6.90
2014,11,15,13,27,7.00
2014,11,15,13,28,7.00
2014,11,15,13,29,7.00
2014,11,15,13,30,7.00
2014,11,15,13,31,7.00
2014,11,15,13,32,7.00
2014,11,15,13,33,7.00
2014,11,15,13,34,7.00
2014,11,15,13,35,6.90
2014,11,15,13,36,6.90
2014,11,15,13,37,6.80
2014,11,15,13,38,6.80
2014,11,15,13,39,6.80
2014,11,15,13,40,6.80
2014,11,15,13,41,6.80
2014,11,15,13,42,6.80
2014,11,15,13,43,6.80
2014,11,15,13,44,6.80
2014,11,15,13,45,6.80
2014,11,15,13,46,6.80
2014,11,15,13,47,6.80
2014,11,15,13,48,6.80
2014,11,15,13,49,6.80
2014,11,15,13,50,6.70
2014,11,15,13,51,6.70
2014,11,15,13,52,6.70
2014,11,15,13,53,6.70
2014,11,15,13,54,6.80
2014,11,15,13,55,6.80
2014,11,15,13,56,6.80
2014,11,15,13,57,6.80
2014,11,15,13,58,6.80
2014,11,15,13,59,6.80
2014,11,15,14,00,6.70
2014,11,15,14,01,6.70
2014,11,15,14,02,6.60
2014,11,15,14,03,6.60
2014,11,15,14,04,6.60
2014,11,15,14,05,6.60
2014,11,15,14,06,6.60
2014,11,15,14,07,6.60
2014,11,15,14,08,6.60
2014,11,15,14,09,6.60
2014,11,15,14,10,6.60
2014,11,15,14,11,6.70
2014,11,15,14,12,6.70
2014,11,15,14,13,6.70
2014,11,15,14,14,6.70
2014,11,15,14,15,6.80
2014,11,15,14,16,6.80
2014,11,15,14,17,6.80
2014,11,15,14,18,6.70
2014,11,15,14,19,6.80
2014,11,15,14,20,6.80
2014,11,15,14,21,6.80
2014,11,15,14,22,6.80
2014,11,15,14,23,6.90
2014,11,15,14,24,6.90
2014,11,15,14,25,6.90
2014,11,15,14,26,7.00
2014,11,15,14,27,7.00
2014,11,15,14,28,7.00
2014,11,15,14,29,6.90
2014,11,15,14,30,6.90
2014,11,15,14,31,6.80
2014,11,15,14,32,6.80
2014,11,15,14,33,6.70
2014,11,15,14,34,6.70
2014,11,15,14,35,6.80
2014,11,15,14,36,6.80
2014,11,15,14,37,6.80
2014,11,15,14,38,6.80
2014,11,15,14,39,6.80
2014,11,15,14,40,6.90
2014,11,15,14,41,6.90
2014,11,15,14,42,6.90
2014,11,15,14,43,6.90
2014,11,15,14,44,6.90
2014,11,15,14,45,6.90
2014,11,15,14,46,6.90
2014,11,15,14,47,6.90
2014,11,15,14,48,6.90
2014,11,15,14,49,6.90
2014,11,15,14,50,6.90
2014,11,15,14,51,6.80
2014,11,15,14,52,6.80
2014,11,15,14,53,6.90
2014,11,15,14,54,6.90
2014,11,15,14,55,6.90
2014,11,15,14,56,7.00
2014,11,15,14,57,7.00
2014,11,15,14,58,7.00
2014,11,15,14,59,7.00
2014,11,15,15,00,7.00
2014,11,15,15,01,7.00
2014,11,15,15,02,7.00
2014,11,15,15,03,7.00
2014,11,15,15,04,7.00
2014,11,15,15,05,7.00
2014,11,15,15,06,6.90
2014,11,15,15,07,6.90
2014,11,15,15,08,6.90
2014,11,15,15,09,6.90
2014,11,15,15,10,6.90
2014,11,15,15,11,6.90
2014,11,15,15,12,6.90
2014,11,15,15,13,6.90
2014,11,15,15,14,6.90
2014,11,15,15,15,6.90
2014,11,15,15,16,6.80
2014,11,15,15,17,6.80
2014,11,15,15,18,6.80
2014,11,15,15,19,6.80
2014,11,15,15,20,6.80
2014,11,15,15,21,6.80
2014,11,15,15,22,6.80
2014,11,15,15,23,6.80
2014,11,15,15,24,6.80
2014,11,15,15,25,6.70
2014,11,15,15,26,6.70
2014,11,15,15,27,6.70
2014,11,15,15,28,6.70
2014,11,15,15,29,6.60
2014,11,15,15,30,6.60
2014,11,15,15,31,6.50
2014,11,15,15,32,6.50
2014,11,15,15,33,6.50
2014,11,15,15,34,6.40
2014,11,15,15,35,6.40
2014,11,15,15,36,6.40
2014,11,15,15,37,6.30
2014,11,15,15,38,6.30
2014,11,15,15,39,6.30
2014,11,15,15,40,6.30
2014,11,15,15,41,6.30
2014,11,15,15,42,6.20
2014,11,15,15,43,6.20
2014,11,15,15,44,6.20
2014,11,15,15,45,6.20
2014,11,15,15,46,6.20
2014,11,15,15,47,6.20
2014,11,15,15,48,6.20
2014,11,15,15,49,6.20
2014,11,15,15,50,6.10
2014,11,15,15,51,6.10
2014,11,15,15,52,6.10
2014,11,15,15,53,6.10
2014,11,15,15,54,6.10
2014,11,15,15,55,6.00
2014,11,15,15,56,6.00
2014,11,15,15,57,6.00
2014,11,15,15,58,6.00
2014,11,15,15,59,5.90
2014,11,15,16,00,6.00
2014,11,15,16,01,5.90
2014,11,15,16,02,5.90
2014,11,15,16,03,5.90
2014,11,15,16,04,5.90
2014,11,15,16,05,5.90
2014,11,15,16,06,5.80
2014,11,15,16,07,5.80
2014,11,15,16,08,5.80
2014,11,15,16,09,5.80
2014,11,15,16,10,5.80
2014,11,15,16,11,5.70
2014,11,15,16,12,5.70
2014,11,15,16,13,5.70
2014,11,15,16,14,5.70
2014,11,15,16,15,5.60
2014,11,15,16,16,5.60
2014,11,15,16,17,5.60
2014,11,15,16,18,5.60
2014,11,15,16,19,5.50
2014,11,15,16,20,5.50
2014,11,15,16,21,5.50
2014,11,15,16,22,5.40
2014,11,15,16,23,5.40
2014,11,15,16,24,5.40
2014,11,15,16,25,5.40
2014,11,15,16,26,5.40
2014,11,15,16,27,5.30
2014,11,15,16,28,5.30
2014,11,15,16,29,5.30
2014,11,15,16,30,5.30
2014,11,15,16,31,5.20
2014,11,15,16,32,5.20
2014,11,15,16,33,5.20
2014,11,15,16,34,5.20
2014,11,15,16,35,5.20
2014,11,15,16,36,5.10
2014,11,15,16,37,5.10
2014,11,15,16,38,5.10
2014,11,15,16,39,5.10
2014,11,15,16,40,5.10
2014,11,15,16,41,5.10
2014,11,15,16,42,5.00
2014,11,15,16,43,5.00
2014,11,15,16,44,5.00
2014,11,15,16,45,4.90
2014,11,15,16,46,4.90
2014,11,15,16,47,4.90
2014,11,15,16,48,4.90
2014,11,15,16,49,4.90
2014,11,15,16,50,4.90
2014,11,15,16,51,4.90
2014,11,15,16,52,4.80
2014,11,15,16,53,4.80
2014,11,15,16,54,4.80
2014,11,15,16,55,4.80
2014,11,15,16,56,4.80
2014,11,15,16,57,4.80
2014,11,15,16,58,4.80
2014,11,15,16,59,4.80
2014,11,15,17,00,4.80
2014,11,15,17,01,4.70
2014,11,15,17,02,4.70
2014,11,15,17,03,4.70
2014,11,15,17,04,4.70
2014,11,15,17,05,4.60
2014,11,15,17,06,4.60
2014,11,15,17,07,4.60
2014,11,15,17,08,4.50
2014,11,15,17,09,4.50
2014,11,15,17,10,4.50
2014,11,15,17,11,4.40
2014,11,15,17,12,4.40
2014,11,15,17,13,4.40
2014,11,15,17,14,4.40
2014,11,15,17,15,4.40
2014,11,15,17,16,4.30
2014,11,15,17,17,4.30
2014,11,15,17,18,4.30
2014,11,15,17,19,4.30
2014,11,15,17,20,4.30
2014,11,15,17,21,4.20
2014,11,15,17,22,4.20
2014,11,15,17,23,4.20
2014,11,15,17,24,4.20
2014,11,15,17,25,4.20
2014,11,15,17,26,4.20
2014,11,15,17,27,4.20
2014,11,15,17,28,4.10
2014,11,15,17,29,4.10
2014,11,15,17,30,4.10
2014,11,15,17,31,4.10
2014,11,15,17,32,4.10
2014,11,15,17,33,4.10
2014,11,15,17,34,4.00
2014,11,15,17,35,4.00
2014,11,15,17,36,3.90
2014,11,15,17,37,3.90
2014,11,15,17,38,3.90
2014,11,15,17,39,3.80
2014,11,15,17,40,3.80
2014,11,15,17,41,3.80
2014,11,15,17,42,3.70
2014,11,15,17,43,3.70
2014,11,15,17,44,3.70
2014,11,15,17,45,3.70
2014,11,15,17,46,3.60
2014,11,15,17,47,3.60
2014,11,15,17,48,3.50
2014,11,15,17,49,3.50
2014,11,15,17,50,3.40
2014,11,15,17,51,3.40
2014,11,15,17,52,3.40
2014,11,15,17,53,3.30
2014,11,15,17,54,3.30
2014,11,15,17,55,3.30
2014,11,15,17,56,3.20
2014,11,15,17,57,3.20
2014,11,15,17,58,3.20
2014,11,15,17,59,3.20
2014,11,15,18,00,3.20
2014,11,15,18,01,3.20
2014,11,15,18,02,3.10